Location: Martz Observatory
(42.0083°N, 79.0667°W)
Time: 05:07:52
(UTC-04:00)

Meteor 1-23 Rocket - Visible Passes

Search period start: 19 August 2017 00:00
Search period end: 29 August 2017 00:00
Orbit: 839 x 887 km, 81.3° (Epoch: 18 August)

Date Brightness Start Highest point End Pass type
(mag) Time Alt. Az. Time Alt. Az. Time Alt. Az.
19 Aug 4.2 21:53:20 10° NNW 21:58:55 83° W 22:02:41 21° S visible
20 Aug 4.2 21:44:58 10° N 21:50:34 84° W 21:54:51 18° S visible
21 Aug 4.2 21:36:38 10° N 21:42:14 85° W 21:47:03 14° S visible
22 Aug 4.2 21:28:18 10° N 21:33:53 86° W 21:39:19 11° S visible
22 Aug 7.1 23:15:40 10° WNW 23:16:06 10° W 23:16:32 10° W visible
23 Aug 4.2 21:19:57 10° N 21:25:33 86° W 21:31:09 10° S visible
23 Aug 7.0 23:07:02 10° WNW 23:07:46 10° W 23:08:31 10° W visible
24 Aug 4.2 21:11:36 10° N 21:17:12 87° W 21:22:48 10° S visible
24 Aug 7.0 22:58:29 10° WNW 22:59:26 10° W 23:00:24 10° W visible
25 Aug 4.2 21:03:16 10° N 21:08:51 88° W 21:14:27 10° S visible
25 Aug 7.1 22:49:58 10° WNW 22:51:06 11° W 22:52:15 10° W visible
26 Aug 4.2 20:54:54 10° N 21:00:31 89° W 21:06:08 10° S visible
26 Aug 7.1 22:41:30 10° WNW 22:42:46 11° W 22:44:04 10° W visible
27 Aug 4.2 20:46:34 10° N 20:52:10 90° ESE 20:57:48 10° S visible
27 Aug 7.1 22:33:01 10° WNW 22:34:27 11° W 22:35:52 10° W visible
28 Aug 4.2 20:38:13 10° N 20:43:49 89° ENE 20:49:27 10° S visible
28 Aug 7.1 22:24:35 10° WNW 22:26:07 11° W 22:27:39 10° W visible
